Location: Macksville High School
(37.9611°N, 99.9654°W)
Time: 14:41:52
(UTC+00:00)

DELTA 2 R/B (1) - Pass Details

Date: 27 February 2020
Orbit: 791 x 802 km, 39.6° (Epoch: 04 April)

Event Time Altitude Azimuth Distance (km) Brightness Sun altitude
Exits shadow 12:40:38 - 283° (WNW) 2,466 5.5 -7.5°
Reaches altitude 10° 12:40:55 10° 283° (WNW) 2,364 5.4 -7.5°
Maximum altitude 12:46:30 80° 197° (SSW) 808 3.6 -6.4°
Drops below altitude 10° 12:52:03 10° 111° (ESE) 2,352 7.6 -5.3°
Sets 12:54:32 0° 110° (ESE) 3,279 8.8 -4.8°
